Manhattan, KS

3:39 AM CST on November 18, 2019 (GMT -0600)
Manhattan Regional

Weather History for KMHK - October, 2019

Change the Weather History Date:

Sunday, October 20, 2019

  Actual Average Record
Temperature  
Mean Temperature 53 °F 54 °F  
Max Temperature 68 °F 67 °F 90 °F (2003)
Min Temperature 38 °F 41 °F 23 °F (2011)
Degree Days  
Heating Degree Days 12 12  
Month to date heating degree days 179 176  
Since 1 July heating degree days 180 246  
Cooling Degree Days 0 0  
Month to date cooling degree days 15 21  
Year to date cooling degree days 1610 1358  
Growing Degree Days 4 (Base 50)    
Moisture  
Dew Point 49 °F    
Average Humidity 73    
Maximum Humidity 96    
Minimum Humidity 49    
Precipitation  
Precipitation 0.21 in 0.07 in 0.49 in (2005)
Month to date precipitation 2.84 1.54  
Year to date precipitation 40.82 29.25  
Sea Level Pressure  
Sea Level Pressure 29.68 in    
Wind  
Wind Speed 7 mph (South)    
Max Wind Speed 21 mph    
Max Gust Speed 31 mph    
Visibility 10 miles    
Events Rain , Thunderstorm    
T = Trace of Precipitation, MM = Missing Value Source: NWS Daily Summary

Daily Weather History Graph

Daily Weather History Graph

Search for Another Location

Airport or City:

Astronomy

Oct. 20, 2019 Rise Set
Actual Time 7:41 AM CDT 6:41 PM CDT
Civil Twilight 7:14 AM CDT 7:08 PM CDT
Nautical Twilight 6:42 AM CDT 7:39 PM CDT
Astronomical Twilight 6:11 AM CDT 8:10 PM CDT
Moon 11:53 PM CDT (10/20) 2:08 PM CDT (10/20)
Length of Visible Light 11h 54m
Length of Day
10h 59m
Waning Gibbous, 59% of the Moon is Illuminated
Oct 20
Waning Gibbous
Oct 21
Last Quarter
Oct 27
New
Nov 4
First Quarter
Nov 12
Full

Hourly Weather History & Observations

Time (CDT) Temp. Dew Point Humidity Pressure Visibility Wind Dir Wind Speed Gust Speed Precip Events Conditions
12:52 AM 41.0 °F 39.0 °F 93% 29.81 in 10.0 mi Calm Calm - N/A   Clear
1:52 AM 41.0 °F 39.0 °F 93% 29.81 in 10.0 mi Calm Calm - N/A   Clear
2:52 AM 39.9 °F 37.9 °F 93% 29.81 in 10.0 mi Calm Calm - N/A   Clear
3:52 AM 48.0 °F 43.0 °F 83% 29.79 in 10.0 mi South 5.8 mph - N/A   Clear
4:52 AM 43.0 °F 41.0 °F 93% 29.78 in 10.0 mi Calm Calm - N/A   Clear
5:52 AM 42.1 °F 39.9 °F 92% 29.79 in 10.0 mi Calm Calm - N/A   Clear
6:52 AM 46.9 °F 45.0 °F 93% 29.79 in 10.0 mi Calm Calm - N/A   Clear
7:52 AM 50.0 °F 48.0 °F 93% 29.78 in 10.0 mi Calm Calm - N/A   Clear
8:52 AM 54.0 °F 50.0 °F 86% 29.77 in 10.0 mi East 5.8 mph - N/A   Clear
9:52 AM 59.0 °F 51.1 °F 75% 29.76 in 10.0 mi SSE 10.4 mph 16.1 mph N/A   Clear
10:52 AM 63.0 °F 50.0 °F 63% 29.75 in 10.0 mi SSE 17.3 mph 31.1 mph N/A   Clear
11:52 AM 63.0 °F 48.0 °F 58% 29.73 in 10.0 mi SE 13.8 mph 25.3 mph N/A   Clear
12:52 PM 64.9 °F 48.0 °F 54% 29.71 in 10.0 mi SSE 15.0 mph 23.0 mph N/A   Clear
1:52 PM 66.0 °F 48.0 °F 52% 29.65 in 10.0 mi SSE 16.1 mph 23.0 mph N/A   Clear
2:52 PM 66.9 °F 48.9 °F 52% 29.61 in 10.0 mi SE 19.6 mph 26.5 mph N/A   Mostly Cloudy
3:52 PM 68.0 °F 48.9 °F 50% 29.58 in 10.0 mi SSE 10.4 mph - N/A   Mostly Cloudy
4:52 PM 68.0 °F 51.1 °F 55% 29.61 in 10.0 mi SSE 5.8 mph - N/A   Mostly Cloudy
5:52 PM 66.9 °F 52.0 °F 59% 29.59 in 10.0 mi ESE 6.9 mph - N/A   Scattered Clouds
6:38 PM 63.0 °F 55.0 °F 75% 29.56 in 10.0 mi SE 10.4 mph - 0.01 in Thunderstorm Mostly Cloudy
6:52 PM 63.0 °F 54.0 °F 72% 29.58 in 10.0 mi West 13.8 mph 20.7 mph 0.01 in Thunderstorm Overcast
7:12 PM 64.9 °F 54.0 °F 68% 29.59 in 10.0 mi NW 5.8 mph 24.2 mph N/A   Overcast
7:24 PM 61.0 °F 54.0 °F 78% 29.60 in 10.0 mi WNW 6.9 mph - 0.00 in Rain , Thunderstorm Light Thunderstorms and Rain
7:45 PM 59.0 °F 55.0 °F 87% 29.60 in 7.0 mi Calm Calm - 0.07 in Rain , Thunderstorm Light Rain
7:52 PM 59.0 °F 55.0 °F 87% 29.60 in 10.0 mi Calm Calm - 0.07 in Thunderstorm Mostly Cloudy
8:02 PM 59.0 °F 55.0 °F 87% 29.62 in 10.0 mi Calm Calm - N/A   Overcast
8:19 PM 57.0 °F 55.0 °F 93% 29.63 in 10.0 mi SW 4.6 mph - N/A Thunderstorm Overcast
8:52 PM 57.0 °F 51.1 °F 81% 29.64 in 10.0 mi West 3.5 mph - 0.07 in Rain , Thunderstorm Light Rain
9:08 PM 55.9 °F 52.0 °F 87% 29.64 in 10.0 mi WSW 5.8 mph - 0.01 in Rain Light Rain
9:52 PM 55.0 °F 50.0 °F 83% 29.61 in 10.0 mi NNW 3.5 mph - 0.04 in Rain Light Rain
10:52 PM 55.9 °F 43.0 °F 62% 29.60 in 10.0 mi West 6.9 mph - 0.02 in   Mostly Cloudy
11:52 PM 52.0 °F 42.1 °F 69% 29.58 in 10.0 mi West 6.9 mph - N/A   Clear